STARLINK-35522, 66341

Orbit data source: Space-Track

STARLINK-35522, 66341 is a payload satellite owned by SpaceX/Seattle (US) in LEO that was launched on Thu, 06 Nov 2025 UTC via an FALCON 9 launch vehicle from the Air Force Eastern Test Range (AFETR). Payload-class satellites include a variety of spacecraft equipped with specific instruments for various scientific and technological missions. These include communications satellites like Starlink; space stations such as the ISS; scientific satellites like the Hubble; Earth observation satellites from companies like Planet Labs, Umbra, and HawkEye 360; GPS; miniature CubeSats for education and research; and military/defense satellites.

Loading next visibility...
Identifier
66341, 2025-253Y
Orbit
LEO
Country
Flag of USUS
Related business
Manufacturer
SpaceX/Seattle
Mission
Operational Commercial Communications
Bus & Motor
STARLINK V2MO, Unknown motor
Mass
575 kg wet, ~530 kg dry
Launch date (UTC)
2025-11-06 (7 months ago)
Launch vehicle
FALCON 9
Launch site
Air Force Eastern Test Range (AFETR)
Object type
Payload
Rocket body
Debris
Shape & HBR
Box + 2 Pan, 17.7 m
Radar Cross Section
36.964 m², Large (>1 m²)

Expand to show TLE details & history
Last TLE update: 16 hours ago

TLE from 16 hours ago
0 STARLINK-35522
1 66341U 25253Y   26170.56802122  .00023013  00000-0  84301-3 0  9997
2 66341  43.0027 357.3089 0001413 259.6919 100.3773 15.27587181 35827
Epoch: 2026-06-19T13:37Z
TLE epoch observation values (Epoch: 2026-06-19T13:37:57.033Z)
Latitude
-0.00004°
Longitude
-114.97392°
Altitude
482.978 km
Speed
7.626 km/s
True Right ascension
23h 49m 14s
True Declination
0° 00' 00"
Sunlit
Object was in daylight at epoch
Visualization orbit readout
Latitude
Unknown
Longitude
Unknown
Altitude
Unknown
Speed
Unknown
Apparent Right ascension
Unknown
Apparent Declination
Unknown
Sunlit
N/A
Visualization observer readout
Local Sidereal Time
16:03:20
Azimuth
Unknown
Elevation
Unknown
Doppler factor
Unknown
Orbital elements
Apogee altitude
485.942 km
Perigee altitude
484.003 km
Semi-major axis
6,863.109 km
Eccentricity
0.00014
Inclination
43.0027°
RAAN
357.3089°
Arg. of periapsis
259.6919°
True anomaly
100.39323°
Mean anomaly
100.3773°
Eccentric anomaly
100.38526°
Mean motion
3.81735 °/min
Orbital period
94.31 mins
BSTAR
0.00084301
Loading maneuver chart data...
Computing Atmospheric mass density...
Loading historical data...
Loading historical data...
Loading historical data...
Loading historical data...
Loading historical data...
Loading historical data...
Loading historical data...

Documentation

Showing up to 5 results
|